Weather History for KEVW - September, 2012

Change the Weather History Date:

Sunday, September 16, 2012

  Actual Average Record
Temperature  
Mean Temperature 61 °F 55 °F  
Max Temperature 76 °F 69 °F 82 °F (2000)
Min Temperature 46 °F 42 °F 28 °F (2006)
Degree Days  
Heating Degree Days 4 10  
Month to date heating degree days 62 119  
Since 1 July heating degree days 71 222  
Cooling Degree Days 0 0  
Month to date cooling degree days 0 0  
Year to date cooling degree days 346 157  
Growing Degree Days 13 (Base 50)    
Moisture  
Dew Point 19 °F    
Average Humidity 20    
Maximum Humidity 28    
Minimum Humidity 11    
Precipitation  
Precipitation 0.00 in 0.04 in 0.15 in (2006)
Month to date precipitation 0.76 0.64  
Year to date precipitation 3.42 8.67  
Sea Level Pressure  
Sea Level Pressure 30.02 in    
Wind  
Wind Speed 9 mph (SW)    
Max Wind Speed 22 mph    
Max Gust Speed 30 mph    
Visibility 10 miles    
Events      
T = Trace of Precipitation, MM = Missing Value Source: NWS Daily Summary

Daily Weather History Graph

Daily Weather History Graph

Search for Another Location

Airport or City:

Trip Planner

Search our weather history database for the weather conditions in past years. The results will help you decide how hot, cold, wet, or windy it might be!

Date:

Astronomy

Sep. 16, 2012 Rise Set
Actual Time 7:06 AM MDT 7:30 PM MDT
Civil Twilight 6:38 AM MDT 7:58 PM MDT
Nautical Twilight 6:05 AM MDT 8:30 PM MDT
Astronomical Twilight 5:32 AM MDT 9:04 PM MDT
Moon 7:50 AM MDT (9/16) 7:36 PM MDT (9/16)
Length of Visible Light 13h 19m
Length of Day
12h 24m
New Moon, 1% of the Moon is Illuminated
Sep 16
New Moon
Sep 22
First Quarter
Sep 29
Full
Oct 8
Last Quarter
Oct 15
New

Hourly Weather History & Observations

Time (MDT) Temp. Dew Point Humidity Pressure Visibility Wind Dir Wind Speed Gust Speed Precip Events Conditions
12:53 AM 55.0 °F 18.0 °F 23% 30.04 in 10.0 mi SSE 6.9 mph - N/A   Clear
1:53 AM 53.1 °F 19.0 °F 26% 30.04 in 10.0 mi SSE 6.9 mph - N/A   Clear
2:53 AM 52.0 °F 18.0 °F 26% 30.04 in 10.0 mi SSE 6.9 mph - N/A   Clear
3:53 AM 52.0 °F 18.0 °F 26% 30.03 in 10.0 mi SSE 8.1 mph - N/A   Clear
4:53 AM 53.1 °F 19.0 °F 26% 30.03 in 10.0 mi Calm Calm - N/A   Clear
6:53 AM 51.1 °F 18.0 °F 27% 30.06 in 10.0 mi SSE 8.1 mph - N/A   Overcast
7:53 AM 53.1 °F 19.0 °F 26% 30.09 in 10.0 mi SSW 3.5 mph - N/A   Overcast
8:53 AM 54.0 °F 21.0 °F 28% 30.10 in 10.0 mi South 4.6 mph - N/A   Mostly Cloudy
9:53 AM 61.0 °F 21.9 °F 22% 30.09 in 10.0 mi South 8.1 mph - N/A   Partly Cloudy
10:53 AM 68.0 °F 21.0 °F 17% 30.06 in 10.0 mi SW 12.7 mph - N/A   Mostly Cloudy
11:53 AM 72.0 °F 21.0 °F 15% 30.05 in 10.0 mi WSW 9.2 mph - N/A   Scattered Clouds
12:53 PM 73.9 °F 19.0 °F 13% 30.02 in 10.0 mi NNW 15.0 mph 21.9 mph N/A   Mostly Cloudy
1:53 PM 72.0 °F 17.1 °F 12% 30.02 in 10.0 mi WNW 15.0 mph - N/A   Mostly Cloudy
2:53 PM 72.0 °F 14.0 °F 11% 30.00 in 10.0 mi West 11.5 mph - N/A   Scattered Clouds
3:53 PM 75.9 °F 18.0 °F 11% 29.97 in 10.0 mi West 20.7 mph 28.8 mph N/A   Partly Cloudy
4:53 PM 73.9 °F 19.9 °F 13% 29.96 in 10.0 mi WSW 20.7 mph 29.9 mph N/A   Partly Cloudy
5:53 PM 72.0 °F 21.0 °F 15% 29.99 in 10.0 mi WNW 23.0 mph 29.9 mph N/A   Partly Cloudy
6:53 PM 70.0 °F 19.9 °F 15% 29.99 in 10.0 mi West 18.4 mph 25.3 mph N/A   Scattered Clouds
7:53 PM 64.0 °F 19.9 °F 18% 30.00 in 10.0 mi West 11.5 mph - N/A   Clear
8:53 PM 61.0 °F 19.9 °F 21% 30.01 in 10.0 mi West 8.1 mph - N/A   Clear
9:53 PM 59.0 °F 21.0 °F 23% 30.00 in 10.0 mi West 6.9 mph - N/A   Clear
10:53 PM 57.9 °F 21.0 °F 24% 29.97 in 10.0 mi West 8.1 mph - N/A   Clear
11:53 PM 55.9 °F 21.0 °F 26% 29.98 in 10.0 mi North 8.1 mph - N/A   Partly Cloudy